F5MAP-5 Weather Reports


Display with metric or nautical units.
time (UTC)temp
F
wind
direction
speed
MPH
gust
MPH
rain 1hr
in
rain 24hr
in
rain mn
in
humidity
%
barometer
mb
20260510182211 62 204 6.0 10.0 0.00 0.00 0.00 81 1007.0
20260510181211 62 180 5.0 9.0 0.00 0.00 0.00 81 1007.1
20260510180211 63 176 6.0 11.0 0.00 0.00 0.00 80 1007.1
20260510175210 63 172 8.0 12.0 0.00 0.00 0.00 80 1007.2
20260510174211 63 163 6.0 11.0 0.00 0.00 0.00 80 1007.3
20260510173210 63 181 5.0 11.0 0.00 0.00 0.00 80 1007.3
20260510172210 64 201 4.0 10.0 0.00 0.00 0.00 80 1007.4
20260510171210 64 169 4.0 8.0 0.00 0.00 0.00 80 1007.4
20260510170215 64 200 5.0 8.0 0.00 0.00 0.00 80 1007.5
20260510165215 64 207 5.0 8.0 0.00 0.00 0.00 80 1007.5
20260510164215 64 169 4.0 7.0 0.00 0.00 0.00 81 1007.6
20260510163215 64 226 3.0 5.0 0.00 0.00 0.00 82 1007.7
20260510162217 64 211 3.0 7.0 0.00 0.00 0.00 83 1007.8
20260510161215 64 251 2.0 6.0 0.00 0.00 0.00 83 1007.9
20260510160215 64 265 5.0 11.0 0.00 0.00 0.00 83 1008.0
20260510155214 64 261 7.0 12.0 0.00 0.00 0.00 82 1008.0
20260510154215 64 278 6.0 10.0 0.00 0.00 0.00 82 1008.1
20260510153215 64 288 6.0 12.0 0.00 0.00 0.00 82 1008.1
20260510152215 65 266 7.0 15.0 0.00 0.00 0.00 81 1008.2
20260510151214 65 246 6.0 11.0 0.00 0.00 0.00 81 1008.0
20260510150214 66 242 6.0 12.0 0.00 0.00 0.00 79 1008.0
20260510145214 66 215 6.0 12.0 0.00 0.00 0.00 77 1008.1
20260510144214 67 259 11.0 18.0 0.00 0.00 0.00 75 1008.1
20260510143214 68 231 6.0 13.0 0.00 0.00 0.00 69 1008.1
20260510142214 69 214 6.0 13.0 0.00 0.00 0.00 65 1008.0
20260510141214 69 185 9.0 15.0 0.00 0.00 0.00 64 1007.9
20260510140214 70 227 8.0 15.0 0.00 0.00 0.00 63 1007.8
20260510135216 71 202 8.0 17.0 0.00 0.00 0.00 63 1007.9
20260510134215 71 279 11.0 16.0 0.00 0.00 0.00 63 1007.9
20260510133215 71 233 6.0 14.0 0.00 0.00 0.00 63 1007.9
20260510132215 71 221 7.0 11.0 0.00 0.00 0.00 62 1008.0
20260510131215 71 292 5.0 8.0 0.00 0.00 0.00 63 1008.1
20260510130215 71 159 5.0 13.0 0.00 0.00 0.00 63 1008.2
20260510125215 71 201 5.0 11.0 0.00 0.00 0.00 63 1008.2
20260510124214 71 275 6.0 14.0 0.00 0.00 0.00 63 1008.3
20260510123214 71 225 6.0 13.0 0.00 0.00 0.00 63 1008.4
20260510122214 71 190 6.0 10.0 0.00 0.00 0.00 63 1008.5
20260510121214 71 269 6.0 12.0 0.00 0.00 0.00 63 1008.6
20260510120214 71 219 5.0 11.0 0.00 0.00 0.00 62 1008.8
20260510115214 71 233 6.0 10.0 0.00 0.00 0.00 61 1008.9
20260510114214 71 275 6.0 12.0 0.00 0.00 0.00 61 1008.9
20260510113214 71 271 5.0 11.0 0.00 0.00 0.00 61 1008.9
20260510112218 71 277 3.0 9.0 0.00 0.00 0.00 62 1009.0
20260510111215 71 214 5.0 10.0 0.00 0.00 0.00 62 1008.9
20260510110215 70 232 3.0 11.0 0.00 0.00 0.00 62 1009.1
20260510104214 70 232 6.0 10.0 0.00 0.00 0.00 61 1009.2
20260510103214 70 269 6.0 9.0 0.00 0.00 0.00 62 1009.3
20260510102214 69 265 4.0 7.0 0.00 0.00 0.00 61 1009.5
20260510101214 69 233 2.0 8.0 0.00 0.00 0.00 62 1009.7
20260510095215 69 265 3.0 6.0 0.00 0.00 0.00 62 1009.8
20260510094214 69 335 2.0 6.0 0.00 0.00 0.00 62 1009.9
20260510093215 69 328 3.0 7.0 0.00 0.00 0.00 62 1009.9
20260510092214 69 297 2.0 6.0 0.00 0.00 0.00 63 1010.0
20260510091214 68 289 2.0 6.0 0.00 0.00 0.00 64 1010.0
20260510085215 67 311 2.0 5.0 0.00 0.00 0.00 66 1009.9
20260510083214 66 104 0.0 2.0 0.00 0.00 0.00 67 1010.2
20260510082214 66 206 1.0 4.0 0.00 0.00 0.00 68 1010.3
20260510081214 65 101 1.0 3.0 0.00 0.00 0.00 68 1010.4
20260510080213 65 300 1.0 3.0 0.00 0.00 0.00 70 1010.4
20260510075214 64 355 1.0 3.0 0.00 0.00 0.00 71 1010.5
20260510074213 64 22 1.0 4.0 0.00 0.00 0.00 73 1010.5
20260510073213 63 24 2.0 5.0 0.00 0.00 0.00 73 1010.4
20260510072213 62 21 3.0 7.0 0.00 0.00 0.00 74 1010.4
20260510071213 62 46 3.0 6.0 0.00 0.00 0.00 74 1010.3
20260510065215 60 21 3.0 9.0 0.00 0.00 0.00 78 1010.4
20260510064215 60 33 3.0 9.0 0.00 0.00 0.00 80 1010.4
20260510063215 59 56 4.0 6.0 0.00 0.00 0.00 83 1010.5
20260510061215 57 61 2.0 5.0 0.00 0.00 0.00 87 1010.4
20260510060215 56 48 2.0 4.0 0.00 0.00 0.00 89 1010.5
20260510054215 55 360 1.0 3.0 0.00 0.00 0.00 89 1010.5
20260510053215 54 61 2.0 4.0 0.00 0.00 0.00 88 1010.6
20260510052214 53 21 1.0 3.0 0.00 0.00 0.00 88 1010.6
20260510050214 52 355 1.0 4.0 0.00 0.00 0.00 86 1010.5
20260510045216 52 349 1.0 3.0 0.00 0.00 0.00 86 1010.5
20260510043214 52 355 0.0 3.0 0.00 0.00 0.00 85 1010.7
20260510041214 52 229 0.0 0.0 0.00 0.00 0.00 84 1010.8
20260510040214 53 169 0.0 0.0 0.00 0.00 0.00 83 1010.9
20260510035214 53 169 0.0 0.0 0.00 0.00 0.00 83 1010.8
20260510034213 53 169 0.0 0.0 0.00 0.00 0.00 82 1010.9
20260510033214 53 169 0.0 0.0 0.00 0.00 0.00 82 1010.8
20260510032213 54 169 0.0 0.0 0.00 0.00 0.00 81 1011.0
20260510031213 54 189 0.0 0.0 0.00 0.00 0.00 81 1011.0
20260510030213 54 189 0.0 0.0 0.00 0.00 0.00 81 1011.0
20260510025213 55 189 0.0 0.0 0.00 0.00 0.00 80 1011.0
20260510024213 55 189 0.0 3.0 0.00 0.00 0.00 81 1011.1
20260510023213 55 63 0.0 2.0 0.00 0.00 0.00 80 1010.9
20260510022213 55 61 2.0 3.0 0.00 0.00 0.00 80 1010.9
20260510020212 56 33 2.0 3.0 0.00 0.00 0.00 79 1011.0
20260510014212 56 34 1.0 2.0 0.00 0.00 0.00 78 1011.1
20260510013212 57 55 0.0 0.0 0.00 0.00 0.00 78 1011.1
20260510012212 57 91 0.0 0.0 0.00 0.00 0.00 78 1011.4
20260510011212 57 91 0.0 2.0 0.00 0.00 0.00 78 1011.4
20260510010213 57 17 1.0 3.0 0.00 0.00 0.00 77 1011.3
20260510005212 57 355 1.0 3.0 0.00 0.00 0.00 77 1011.3
20260510002212 58 341 3.0 5.0 0.00 0.00 0.00 76 1011.5
20260510001212 58 336 3.0 6.0 0.00 0.00 0.00 76 1011.6
20260510000212 58 355 3.0 5.0 0.00 0.00 0.00 76 1011.9
20260509235212 58 337 2.0 4.0 0.00 0.00 0.00 75 1012.0
20260509234212 58 349 1.0 4.0 0.00 0.00 0.00 75 1012.1
20260509233212 59 360 2.0 3.0 0.00 0.00 0.00 75 1012.2
20260509232211 59 20 1.0 4.0 0.00 0.00 0.00 74 1012.2
20260509231212 59 26 2.0 5.0 0.00 0.00 0.00 73 1012.2
20260509230211 60 9 0.0 0.0 0.00 0.00 0.00 72 1012.3
20260509225211 60 355 0.0 0.0 0.00 0.00 0.00 72 1012.3
20260509224212 60 19 0.0 0.0 0.00 0.00 0.00 71 1012.4
20260509223212 60 22 1.0 3.0 0.00 0.00 0.00 71 1012.3
20260509222211 60 10 1.0 3.0 0.00 0.00 0.00 70 1012.3
20260509221212 61 24 0.0 2.0 0.00 0.00 0.00 70 1012.4
20260509220212 62 65 0.0 0.0 0.00 0.00 0.00 69 1012.4
20260509215212 62 65 0.0 2.0 0.00 0.00 0.00 68 1012.5
20260509214212 63 30 0.0 1.0 0.00 0.00 0.00 67 1012.5
20260509213212 63 17 0.0 2.0 0.00 0.00 0.00 65 1012.5
20260509212212 63 17 1.0 3.0 0.00 0.00 0.00 64 1012.4
20260509211212 64 28 1.0 4.0 0.00 0.00 0.00 64 1012.5
20260509210212 64 355 3.0 5.0 0.00 0.00 0.00 63 1012.4
20260509205212 64 325 4.0 8.0 0.00 0.00 0.00 63 1012.5
20260509204212 65 328 3.0 5.0 0.00 0.00 0.00 62 1012.5
20260509203211 65 329 3.0 6.0 0.00 0.00 0.00 61 1012.6
20260509202211 65 336 3.0 5.0 0.00 0.00 0.00 60 1012.6
20260509201211 66 344 3.0 6.0 0.00 0.00 0.00 59 1012.5
20260509200212 67 326 3.0 5.0 0.00 0.00 0.00 57 1012.5
20260509194213 68 346 2.0 4.0 0.00 0.00 0.00 55 1012.3
20260509193213 69 5 1.0 3.0 0.00 0.00 0.00 54 1012.3
20260509192213 69 17 1.0 4.0 0.00 0.00 0.00 53 1012.3
20260509191213 70 360 2.0 4.0 0.00 0.00 0.00 52 1012.2
20260509190213 70 22 0.0 3.0 0.00 0.00 0.00 50 1012.3
20260509185213 71 5 1.0 5.0 0.00 0.00 0.00 50 1012.3
20260509184213 71 31 3.0 6.0 0.00 0.00 0.00 49 1012.3
20260509183212 72 59 3.0 6.0 0.00 0.00 0.00 47 1012.3